This is the latest recevied weather packets stored in our database for station/object N4ASP-13. If no packets are shown the sender has not sent any weather packets the latest 10 day(s).
| Time | Temp. | Humidity | Pressure | Rain* | Wind** | Luminosity | Snow |
|---|---|---|---|---|---|---|---|
| 1777570240 | 18.89° C | 53% | 1010.9 hPa | 0 mm | - | 1213 W/m² | - |
| 1777570180 | 18.89° C | 53% | 1010.8 hPa | 0 mm | - | 1204 W/m² | - |
| 1777570121 | 18.89° C | 54% | 1010.9 hPa | 0 mm | - | 1204 W/m² | - |
| 1777570058 | 18.89° C | 55% | 1010.9 hPa | 0 mm | - | 1188 W/m² | - |
| 1777569999 | 18.89° C | 52% | 1010.8 hPa | 0 mm | - | 1181 W/m² | - |
| 1777569939 | 18.89° C | 53% | 1010.8 hPa | 0 mm | - | 1169 W/m² | - |
| 1777569877 | 18.89° C | 53% | 1010.7 hPa | 0 mm | - | 1160 W/m² | - |
| 1777569814 | 18.89° C | 54% | 1010.8 hPa | 0 mm | - | 1151 W/m² | - |
| 1777569753 | 18.89° C | 55% | 1010.8 hPa | 0 mm | - | 1144 W/m² | - |
| 1777569694 | 18.89° C | 51% | 1010.8 hPa | 0 mm | - | 1137 W/m² | - |
| 1777569634 | 18.89° C | 52% | 1010.9 hPa | 0 mm | - | 1134 W/m² | - |
| 1777569574 | 18.89° C | 53% | 1010.8 hPa | 0 mm | - | 1132 W/m² | - |
| 1777569513 | 18.89° C | 53% | 1010.8 hPa | 0 mm | - | 1134 W/m² | - |
| 1777569454 | 18.89° C | 53% | 1010.8 hPa | 0 mm | - | 1134 W/m² | - |
| 1777569395 | 18.89° C | 54% | 1010.8 hPa | 0 mm | - | 1129 W/m² | - |
| 1777569332 | 18.33° C | 53% | 1010.8 hPa | 0 mm | - | 1125 W/m² | - |
| 1777569273 | 18.33° C | 52% | 1010.8 hPa | 0 mm | - | 1121 W/m² | - |
| 1777569210 | 18.33° C | 54% | 1010.8 hPa | 0 mm | - | 1120 W/m² | - |
| 1777569151 | 18.33° C | 56% | 1010.8 hPa | 0 mm | - | 1120 W/m² | - |
| 1777569091 | 18.33° C | 58% | 1010.8 hPa | 0 mm | - | 1109 W/m² | - |
| 1777569027 | 18.33° C | 56% | 1010.7 hPa | 0 mm | - | 1107 W/m² | - |
| 1777568964 | 18.33° C | 57% | 1010.8 hPa | 0 mm | - | 1106 W/m² | - |
| 1777568903 | 18.33° C | 58% | 1010.9 hPa | 0 mm | - | 1106 W/m² | - |
| 1777568845 | 18.33° C | 57% | 1010.9 hPa | 0 mm | - | 1102 W/m² | - |
| 1777568785 | 17.78° C | 57% | 1010.9 hPa | 0 mm | - | 1104 W/m² | - |
* Rain latest hour (hover to see other rain measurements)
** Current wind speed in m/s (hover to see current wind gust speed)